Location: Madrid
(40.4000°N, 3.6830°W)
Time: 00:27:11
(UTC+02:00)

ISS - Pass Details

Date: 21 July 2019
Orbit: 409 x 418 km, 51.6° (Epoch: 22 July)

Event Time Altitude Azimuth Distance (km) Brightness Sun altitude
Rises 02:12:33 0° 311° (NW) 2,351 0.6 -29.0°
Reaches altitude 10° 02:15:22 10° 337° (NNW) 1,485 -0.2 -29.0°
Maximum altitude 02:17:20 15° 13° (NNE) 1,230 -0.6 -29.0°
Enters shadow 02:17:58 14° 26° (NNE) 1,258 -0.7 -29.0°
